| time (UTC) | temp C | wind direction | speed KPH | gust KPH | rain 1hr cm | rain 24hr cm | rain mn cm | humidity % | barometer mb |
| 20260903202144 | 22 | 13 | 8.0 | 17.7 | 0.00 | 0.00 | 0.00 | 34 | 1029.6 |
| 20260903201638 | 23 | 350 | 4.8 | 14.5 | 0.00 | 0.00 | 0.00 | 31 | 1029.4 |
| 20260903201137 | 22 | 59 | 6.4 | 11.3 | 0.00 | 0.00 | 0.00 | 30 | 1029.1 |
| 20260903200632 | 22 | 338 | 11.3 | 12.9 | 0.00 | 0.00 | 0.00 | 32 | 1029.5 |
| 20260903200128 | 21 | 0 | 6.4 | 9.7 | 0.00 | 0.00 | 0.00 | 34 | 1029.4 |
| 20260903195623 | 21 | 316 | 9.7 | 14.5 | 0.00 | 0.00 | 0.00 | 34 | 1029.5 |
| 20260903195119 | 22 | 287 | 4.8 | 25.7 | 0.00 | 0.00 | 0.00 | 31 | 1029.5 |
| 20260903194614 | 21 | 39 | 12.9 | 17.7 | 0.00 | 0.00 | 0.00 | 30 | 1029.5 |
| 20260903194109 | 22 | 258 | 9.7 | 14.5 | 0.00 | 0.00 | 0.00 | 29 | 1029.6 |
| 20260903193605 | 22 | 183 | 3.2 | 9.7 | 0.00 | 0.00 | 0.00 | 30 | 1029.6 |
| 20260903193100 | 21 | 72 | 1.6 | 6.4 | 0.00 | 0.00 | 0.00 | 32 | 1029.8 |
| 20260903192557 | 21 | 10 | 4.8 | 6.4 | 0.00 | 0.00 | 0.00 | 33 | 1029.8 |
| 20260903192057 | 22 | 31 | 1.6 | 4.8 | 0.00 | 0.00 | 0.00 | 33 | 1029.9 |
| 20260903191553 | 21 | 224 | 1.6 | 6.4 | 0.00 | 0.00 | 0.00 | 31 | 1029.8 |
| 20260903191048 | 21 | 216 | 1.6 | 3.2 | 0.00 | 0.00 | 0.00 | 32 | 1030.0 |
| 20260903190547 | 21 | 120 | 1.6 | 9.7 | 0.00 | 0.00 | 0.00 | 32 | 1029.8 |
| 20260903190047 | 21 | 311 | 1.6 | 6.4 | 0.00 | 0.00 | 0.00 | 33 | 1029.9 |
| 20260903185542 | 20 | 261 | 3.2 | 11.3 | 0.00 | 0.00 | 0.00 | 33 | 1030.2 |
| 20260903185038 | 21 | 1 | 6.4 | 12.9 | 0.00 | 0.00 | 0.00 | 32 | 1030.0 |
| 20260903184534 | 21 | 7 | 8.0 | 11.3 | 0.00 | 0.00 | 0.00 | 34 | 1030.0 |
| 20260903184029 | 21 | 13 | 3.2 | 6.4 | 0.00 | 0.00 | 0.00 | 33 | 1030.2 |
| 20260903183528 | 20 | 101 | 4.8 | 6.4 | 0.00 | 0.00 | 0.00 | 33 | 1030.3 |
| 20260903183024 | 20 | 198 | 11.3 | 12.9 | 0.00 | 0.00 | 0.00 | 35 | 1030.6 |
| 20260903182522 | 20 | 264 | 1.6 | 4.8 | 0.00 | 0.00 | 0.00 | 34 | 1030.7 |
| 20260903182019 | 21 | 353 | 4.8 | 4.8 | 0.00 | 0.00 | 0.00 | 35 | 1030.6 |
| 20260903181517 | 20 | 342 | 1.6 | 14.5 | 0.00 | 0.00 | 0.00 | 36 | 1030.6 |
| 20260903181017 | 20 | 336 | 4.8 | 9.7 | 0.00 | 0.00 | 0.00 | 34 | 1030.3 |
| 20260903180513 | 20 | 238 | 8.0 | 11.3 | 0.00 | 0.00 | 0.00 | 30 | 1030.7 |
| 20260903180012 | 20 | 251 | 3.2 | 6.4 | 0.00 | 0.00 | 0.00 | 31 | 1030.7 |
| 20260903175511 | 20 | 200 | 11.3 | 14.5 | 0.00 | 0.00 | 0.00 | 32 | 1030.4 |
| 20260903175010 | 20 | 74 | 4.8 | 11.3 | 0.00 | 0.00 | 0.00 | 32 | 1031.0 |
| 20260903174505 | 21 | 340 | 6.4 | 6.4 | 0.00 | 0.00 | 0.00 | 31 | 1031.0 |
| 20260903174000 | 20 | 32 | 4.8 | 6.4 | 0.00 | 0.00 | 0.00 | 32 | 1030.8 |
| 20260903173455 | 20 | 236 | 0.0 | 3.2 | 0.00 | 0.00 | 0.00 | 30 | 1030.8 |
| 20260903172950 | 20 | 10 | 4.8 | 6.4 | 0.00 | 0.00 | 0.00 | 30 | 1030.7 |
| 20260903172446 | 19 | 236 | 3.2 | 4.8 | 0.00 | 0.00 | 0.00 | 30 | 1031.0 |
| 20260903171941 | 20 | 209 | 4.8 | 4.8 | 0.00 | 0.00 | 0.00 | 29 | 1030.8 |
| 20260903171436 | 20 | 206 | 3.2 | 11.3 | 0.00 | 0.00 | 0.00 | 31 | 1031.1 |
| 20260903170936 | 19 | 263 | 1.6 | 6.4 | 0.00 | 0.00 | 0.00 | 32 | 1030.8 |
| 20260903170431 | 19 | 323 | 11.3 | 14.5 | 0.00 | 0.00 | 0.00 | 32 | 1031.1 |
| 20260903165930 | 18 | 302 | 4.8 | 6.4 | 0.00 | 0.00 | 0.00 | 32 | 1031.0 |
| 20260903165424 | 18 | 323 | 6.4 | 14.5 | 0.00 | 0.00 | 0.00 | 32 | 1030.7 |
| 20260903164918 | 19 | 354 | 4.8 | 20.9 | 0.00 | 0.00 | 0.00 | 32 | 1031.0 |
| 20260903164414 | 18 | 344 | 11.3 | 14.5 | 0.00 | 0.00 | 0.00 | 31 | 1030.8 |
| 20260903163913 | 20 | 296 | 0.0 | 3.2 | 0.00 | 0.00 | 0.00 | 34 | 1031.1 |
| 20260903163409 | 20 | 253 | 1.6 | 3.2 | 0.00 | 0.00 | 0.00 | 30 | 1031.1 |
| 20260903162905 | 18 | 208 | 0.0 | 6.4 | 0.00 | 0.00 | 0.00 | 33 | 1030.8 |
| 20260903162402 | 18 | 239 | 6.4 | 17.7 | 0.00 | 0.00 | 0.00 | 35 | 1030.7 |
| 20260903161857 | 18 | 177 | 3.2 | 9.7 | 0.00 | 0.00 | 0.00 | 35 | 1030.8 |
| 20260903161352 | 18 | 325 | 4.8 | 11.3 | 0.00 | 0.00 | 0.00 | 35 | 1030.7 |
| 20260903160848 | 18 | 254 | 0.0 | 3.2 | 0.00 | 0.00 | 0.00 | 33 | 1030.8 |
| 20260903160347 | 19 | 223 | 6.4 | 6.4 | 0.00 | 0.00 | 0.00 | 33 | 1030.8 |
| 20260903155845 | 18 | 261 | 4.8 | 11.3 | 0.00 | 0.00 | 0.00 | 40 | 1030.7 |
| 20260903155341 | 17 | 257 | 6.4 | 9.7 | 0.00 | 0.00 | 0.00 | 37 | 1030.8 |
| 20260903154837 | 17 | 251 | 3.2 | 4.8 | 0.00 | 0.00 | 0.00 | 37 | 1030.8 |
| 20260903154333 | 17 | 232 | 6.4 | 11.3 | 0.00 | 0.00 | 0.00 | 38 | 1030.7 |
| 20260903153833 | 17 | 229 | 6.4 | 11.3 | 0.00 | 0.00 | 0.00 | 39 | 1030.6 |
| 20260903153329 | 17 | 231 | 8.0 | 11.3 | 0.00 | 0.00 | 0.00 | 39 | 1030.7 |
| 20260903152825 | 17 | 208 | 4.8 | 9.7 | 0.00 | 0.00 | 0.00 | 39 | 1030.7 |
| 20260903152320 | 17 | 263 | 3.2 | 3.2 | 0.00 | 0.00 | 0.00 | 39 | 1030.8 |
| 20260903151815 | 16 | 237 | 1.6 | 6.4 | 0.00 | 0.00 | 0.00 | 44 | 1030.7 |
| 20260903151311 | 17 | 137 | 9.7 | 11.3 | 0.00 | 0.00 | 0.00 | 41 | 1030.8 |
| 20260903150812 | 16 | 249 | 3.2 | 9.7 | 0.00 | 0.00 | 0.00 | 44 | 1030.8 |
| 20260903150311 | 16 | 292 | 8.0 | 12.9 | 0.00 | 0.00 | 0.00 | 41 | 1031.0 |
| 20260903145806 | 16 | 246 | 1.6 | 11.3 | 0.00 | 0.00 | 0.00 | 42 | 1031.0 |
| 20260903145305 | 16 | 209 | 4.8 | 4.8 | 0.00 | 0.00 | 0.00 | 43 | 1030.8 |
| 20260903144800 | 17 | 257 | 0.0 | 3.2 | 0.00 | 0.00 | 0.00 | 43 | 1031.0 |
| 20260903144256 | 17 | 257 | 0.0 | 3.2 | 0.00 | 0.00 | 0.00 | 43 | 1031.0 |
| 20260903143752 | 16 | 142 | 3.2 | 4.8 | 0.00 | 0.00 | 0.00 | 43 | 1030.8 |
| 20260903143248 | 16 | 203 | 4.8 | 4.8 | 0.00 | 0.00 | 0.00 | 46 | 1030.8 |
| 20260903142743 | 16 | 218 | 1.6 | 3.2 | 0.00 | 0.00 | 0.00 | 42 | 1030.8 |
| 20260903142239 | 16 | 223 | 1.6 | 3.2 | 0.00 | 0.00 | 0.00 | 43 | 1031.0 |
| 20260903141735 | 15 | 235 | 1.6 | 3.2 | 0.00 | 0.00 | 0.00 | 50 | 1031.1 |
| 20260903141230 | 15 | 238 | 1.6 | 1.6 | 0.00 | 0.00 | 0.00 | 52 | 1031.1 |
| 20260903140725 | 15 | 244 | 0.0 | 0.0 | 0.00 | 0.00 | 0.00 | 53 | 1030.7 |
| 20260903140220 | 14 | 237 | 1.6 | 1.6 | 0.00 | 0.00 | 0.00 | 54 | 1031.0 |
| 20260903135716 | 13 | 235 | 3.2 | 3.2 | 0.00 | 0.00 | 0.00 | 51 | 1030.8 |
| 20260903135212 | 12 | 214 | 3.2 | 3.2 | 0.00 | 0.00 | 0.00 | 59 | 1030.6 |
| 20260903134710 | 12 | 226 | 1.6 | 3.2 | 0.00 | 0.00 | 0.00 | 60 | 1031.0 |
| 20260903134206 | 12 | 232 | 1.6 | 3.2 | 0.00 | 0.00 | 0.00 | 59 | 1030.7 |
| 20260903133704 | 11 | 220 | 3.2 | 3.2 | 0.00 | 0.00 | 0.00 | 61 | 1030.4 |
| 20260903133200 | 11 | 224 | 1.6 | 3.2 | 0.00 | 0.00 | 0.00 | 61 | 1030.7 |
| 20260903132654 | 11 | 230 | 1.6 | 3.2 | 0.00 | 0.00 | 0.00 | 60 | 1030.3 |
| 20260903132149 | 11 | 203 | 4.8 | 4.8 | 0.00 | 0.00 | 0.00 | 60 | 1030.3 |
| 20260903131644 | 11 | 218 | 3.2 | 3.2 | 0.00 | 0.00 | 0.00 | 59 | 1030.4 |
| 20260903131142 | 11 | 217 | 3.2 | 4.8 | 0.00 | 0.00 | 0.00 | 58 | 1030.4 |
| 20260903130638 | 11 | 202 | 6.4 | 6.4 | 0.00 | 0.00 | 0.00 | 57 | 1030.3 |
| 20260903130137 | 10 | 209 | 3.2 | 4.8 | 0.00 | 0.00 | 0.00 | 59 | 1030.3 |
| 20260903125636 | 11 | 224 | 3.2 | 3.2 | 0.00 | 0.00 | 0.00 | 58 | 1030.4 |
| 20260903125131 | 11 | 192 | 3.2 | 4.8 | 0.00 | 0.00 | 0.00 | 54 | 1030.2 |
| 20260903124625 | 11 | 221 | 3.2 | 11.3 | 0.00 | 0.00 | 0.00 | 53 | 1030.2 |
| 20260903124120 | 11 | 206 | 4.8 | 4.8 | 0.00 | 0.00 | 0.00 | 54 | 1030.0 |
| 20260903123619 | 12 | 227 | 3.2 | 3.2 | 0.00 | 0.00 | 0.00 | 55 | 1029.9 |
| 20260903123118 | 11 | 209 | 11.3 | 12.9 | 0.00 | 0.00 | 0.00 | 54 | 1030.0 |
| 20260903122613 | 11 | 208 | 4.8 | 4.8 | 0.00 | 0.00 | 0.00 | 54 | 1029.6 |
| 20260903122113 | 10 | 223 | 4.8 | 6.4 | 0.00 | 0.00 | 0.00 | 56 | 1029.9 |
| 20260903121607 | 10 | 202 | 4.8 | 6.4 | 0.00 | 0.00 | 0.00 | 56 | 1029.8 |
| 20260903121103 | 10 | 220 | 3.2 | 4.8 | 0.00 | 0.00 | 0.00 | 59 | 1029.9 |
| 20260903120601 | 10 | 181 | 4.8 | 4.8 | 0.00 | 0.00 | 0.00 | 56 | 1029.5 |
| 20260903120056 | 10 | 199 | 6.4 | 6.4 | 0.00 | 0.00 | 0.00 | 55 | 1029.8 |
| 20260903115554 | 10 | 194 | 6.4 | 6.4 | 0.00 | 0.00 | 0.00 | 59 | 1029.9 |
| 20260903115049 | 10 | 204 | 4.8 | 4.8 | 0.00 | 0.00 | 0.00 | 59 | 1029.6 |
| 20260903114544 | 10 | 219 | 4.8 | 4.8 | 0.00 | 0.00 | 0.00 | 58 | 1029.5 |
| 20260903114040 | 11 | 223 | 3.2 | 4.8 | 0.00 | 0.00 | 0.00 | 54 | 1029.9 |
| 20260903113535 | 10 | 201 | 4.8 | 6.4 | 0.00 | 0.00 | 0.00 | 56 | 1029.4 |
| 20260903113031 | 9 | 207 | 4.8 | 6.4 | 0.00 | 0.00 | 0.00 | 61 | 1029.6 |
| 20260903094241 | 11 | 247 | 1.6 | 3.2 | 0.00 | 0.00 | 0.00 | 53 | 1029.6 |
| 20260903093737 | 11 | 247 | 1.6 | 3.2 | 0.00 | 0.00 | 0.00 | 53 | 1029.6 |
| 20260903093232 | 11 | 218 | 3.2 | 4.8 | 0.00 | 0.00 | 0.00 | 54 | 1029.5 |
| 20260903092731 | 10 | 226 | 3.2 | 4.8 | 0.00 | 0.00 | 0.00 | 55 | 1029.8 |
| 20260903092227 | 10 | 208 | 3.2 | 4.8 | 0.00 | 0.00 | 0.00 | 55 | 1029.6 |
| 20260903091725 | 11 | 209 | 4.8 | 4.8 | 0.00 | 0.00 | 0.00 | 55 | 1029.8 |
| 20260903091220 | 10 | 213 | 4.8 | 6.4 | 0.00 | 0.00 | 0.00 | 56 | 1029.8 |
| 20260903090715 | 10 | 210 | 4.8 | 4.8 | 0.00 | 0.00 | 0.00 | 56 | 1029.8 |
| 20260903090214 | 11 | 197 | 4.8 | 6.4 | 0.00 | 0.00 | 0.00 | 53 | 1029.9 |
| 20260903085713 | 11 | 201 | 4.8 | 4.8 | 0.00 | 0.00 | 0.00 | 51 | 1030.0 |
| 20260903085209 | 11 | 209 | 3.2 | 4.8 | 0.00 | 0.00 | 0.00 | 55 | 1029.9 |
| 20260903084706 | 11 | 206 | 4.8 | 6.4 | 0.00 | 0.00 | 0.00 | 53 | 1029.8 |
| 20260903084201 | 12 | 200 | 3.2 | 4.8 | 0.00 | 0.00 | 0.00 | 51 | 1029.9 |
| 20260903083657 | 12 | 199 | 4.8 | 6.4 | 0.00 | 0.00 | 0.00 | 49 | 1029.9 |
| 20260903083157 | 11 | 231 | 4.8 | 6.4 | 0.00 | 0.00 | 0.00 | 50 | 1030.0 |
| 20260903082651 | 11 | 218 | 3.2 | 6.4 | 0.00 | 0.00 | 0.00 | 52 | 1029.9 |
| 20260903082147 | 11 | 223 | 4.8 | 6.4 | 0.00 | 0.00 | 0.00 | 54 | 1030.0 |
| 20260903081641 | 11 | 201 | 6.4 | 6.4 | 0.00 | 0.00 | 0.00 | 56 | 1029.8 |
| 20260903081138 | 11 | 206 | 4.8 | 4.8 | 0.00 | 0.00 | 0.00 | 57 | 1029.8 |
| 20260903080634 | 11 | 222 | 3.2 | 4.8 | 0.00 | 0.00 | 0.00 | 57 | 1030.0 |
| 20260903080132 | 11 | 191 | 4.8 | 4.8 | 0.00 | 0.00 | 0.00 | 54 | 1029.9 |
| 20260903075630 | 12 | 222 | 3.2 | 6.4 | 0.00 | 0.00 | 0.00 | 55 | 1029.8 |
| 20260903075125 | 11 | 252 | 4.8 | 6.4 | 0.00 | 0.00 | 0.00 | 51 | 1029.8 |
| 20260903074620 | 10 | 208 | 4.8 | 6.4 | 0.00 | 0.00 | 0.00 | 64 | 1029.9 |
| 20260903074120 | 11 | 208 | 4.8 | 4.8 | 0.00 | 0.00 | 0.00 | 61 | 1029.8 |
| 20260903073615 | 10 | 205 | 4.8 | 6.4 | 0.00 | 0.00 | 0.00 | 61 | 1029.9 |
| 20260903073111 | 10 | 210 | 3.2 | 4.8 | 0.00 | 0.00 | 0.00 | 63 | 1030.2 |
| 20260903072606 | 10 | 221 | 3.2 | 3.2 | 0.00 | 0.00 | 0.00 | 69 | 1030.2 |
| 20260903072102 | 10 | 211 | 4.8 | 4.8 | 0.00 | 0.00 | 0.00 | 69 | 1029.9 |
| 20260903071559 | 10 | 211 | 4.8 | 4.8 | 0.00 | 0.00 | 0.00 | 67 | 1029.9 |
| 20260903071054 | 11 | 207 | 4.8 | 4.8 | 0.00 | 0.00 | 0.00 | 66 | 1030.2 |
| 20260903070553 | 11 | 227 | 6.4 | 6.4 | 0.00 | 0.00 | 0.00 | 65 | 1030.3 |
| 20260903070049 | 11 | 203 | 4.8 | 4.8 | 0.00 | 0.00 | 0.00 | 67 | 1030.4 |
| 20260903065549 | 11 | 211 | 4.8 | 4.8 | 0.00 | 0.00 | 0.00 | 68 | 1030.2 |
| 20260903065048 | 11 | 211 | 4.8 | 4.8 | 0.00 | 0.00 | 0.00 | 70 | 1030.4 |
| 20260903064543 | 10 | 218 | 4.8 | 4.8 | 0.00 | 0.00 | 0.00 | 70 | 1030.7 |
| 20260903064038 | 10 | 207 | 4.8 | 4.8 | 0.00 | 0.00 | 0.00 | 71 | 1030.6 |
| 20260903063533 | 10 | 203 | 4.8 | 4.8 | 0.00 | 0.00 | 0.00 | 70 | 1030.2 |
| 20260903063029 | 10 | 206 | 4.8 | 4.8 | 0.00 | 0.00 | 0.00 | 70 | 1030.3 |
| 20260903062524 | 11 | 207 | 4.8 | 4.8 | 0.00 | 0.00 | 0.00 | 71 | 1030.7 |
| 20260903062020 | 11 | 205 | 4.8 | 4.8 | 0.00 | 0.00 | 0.00 | 71 | 1030.4 |
| 20260903061514 | 11 | 210 | 4.8 | 4.8 | 0.00 | 0.00 | 0.00 | 70 | 1030.3 |
| 20260903061003 | 11 | 216 | 3.2 | 3.2 | 0.00 | 0.00 | 0.00 | 70 | 1030.3 |
| 20260903060457 | 11 | 222 | 3.2 | 4.8 | 0.00 | 0.00 | 0.00 | 69 | 1030.3 |
| 20260903055957 | 11 | 208 | 3.2 | 4.8 | 0.00 | 0.03 | 0.03 | 68 | 1030.2 |
| 20260903055455 | 11 | 219 | 3.2 | 3.2 | 0.00 | 0.03 | 0.03 | 70 | 1030.2 |
| 20260903054954 | 11 | 223 | 3.2 | 3.2 | 0.00 | 0.03 | 0.03 | 68 | 1029.9 |
| 20260903054449 | 11 | 237 | 1.6 | 3.2 | 0.00 | 0.03 | 0.03 | 70 | 1030.2 |
| 20260903053945 | 11 | 228 | 1.6 | 3.2 | 0.00 | 0.03 | 0.03 | 69 | 1029.9 |
| 20260903053444 | 12 | 221 | 3.2 | 3.2 | 0.00 | 0.03 | 0.03 | 70 | 1030.3 |
| 20260903052941 | 12 | 214 | 3.2 | 4.8 | 0.00 | 0.03 | 0.03 | 66 | 1030.6 |
| 20260903052437 | 12 | 222 | 4.8 | 4.8 | 0.00 | 0.03 | 0.03 | 62 | 1030.4 |
| 20260903051932 | 12 | 214 | 4.8 | 9.7 | 0.00 | 0.03 | 0.03 | 65 | 1030.3 |
| 20260903051427 | 12 | 202 | 6.4 | 6.4 | 0.00 | 0.03 | 0.03 | 71 | 1030.4 |
| 20260903050923 | 12 | 210 | 4.8 | 6.4 | 0.00 | 0.03 | 0.03 | 70 | 1030.3 |
| 20260903050421 | 13 | 256 | 4.8 | 6.4 | 0.00 | 0.03 | 0.03 | 61 | 1030.3 |
| 20260903045916 | 13 | 158 | 4.8 | 9.7 | 0.00 | 0.03 | 0.03 | 58 | 1030.7 |
| 20260903045412 | 13 | 220 | 3.2 | 9.7 | 0.00 | 0.03 | 0.03 | 60 | 1030.6 |
| 20260903044909 | 13 | 220 | 3.2 | 4.8 | 0.00 | 0.03 | 0.03 | 62 | 1030.3 |
| 20260903044409 | 13 | 224 | 3.2 | 3.2 | 0.00 | 0.03 | 0.03 | 62 | 1030.3 |
| 20260903043906 | 13 | 230 | 3.2 | 3.2 | 0.00 | 0.03 | 0.03 | 61 | 1030.4 |
| 20260903043401 | 14 | 238 | 3.2 | 4.8 | 0.00 | 0.03 | 0.03 | 58 | 1030.6 |
| 20260903042859 | 15 | 234 | 3.2 | 6.4 | 0.00 | 0.03 | 0.03 | 57 | 1030.6 |
| 20260903042355 | 15 | 186 | 9.7 | 16.1 | 0.00 | 0.03 | 0.03 | 52 | 1030.6 |
| 20260903041851 | 13 | 214 | 3.2 | 4.8 | 0.00 | 0.03 | 0.03 | 67 | 1030.7 |
| 20260903041347 | 13 | 224 | 3.2 | 3.2 | 0.00 | 0.03 | 0.03 | 65 | 1031.2 |
| 20260903040843 | 13 | 238 | 1.6 | 4.8 | 0.00 | 0.03 | 0.03 | 65 | 1031.4 |
| 20260903040341 | 13 | 223 | 3.2 | 3.2 | 0.00 | 0.03 | 0.03 | 64 | 1031.4 |
| 20260903035838 | 13 | 216 | 3.2 | 4.8 | 0.00 | 0.03 | 0.03 | 64 | 1030.8 |
| 20260903035338 | 13 | 258 | 0.0 | 1.6 | 0.00 | 0.03 | 0.03 | 63 | 1031.2 |
| 20260903034833 | 13 | 235 | 3.2 | 3.2 | 0.00 | 0.03 | 0.03 | 62 | 1030.8 |
| 20260903034328 | 13 | 252 | 0.0 | 1.6 | 0.00 | 0.03 | 0.03 | 61 | 1030.8 |
| 20260903033823 | 13 | 226 | 1.6 | 3.2 | 0.00 | 0.03 | 0.03 | 61 | 1031.1 |
| 20260903033318 | 13 | 213 | 3.2 | 4.8 | 0.00 | 0.03 | 0.03 | 60 | 1031.1 |
| 20260903032818 | 13 | 228 | 3.2 | 4.8 | 0.00 | 0.03 | 0.03 | 60 | 1031.1 |
| 20260903032314 | 13 | 242 | 3.2 | 4.8 | 0.00 | 0.03 | 0.03 | 63 | 1031.0 |
| 20260903031809 | 13 | 238 | 1.6 | 3.2 | 0.00 | 0.03 | 0.03 | 64 | 1030.6 |
| 20260903031308 | 12 | 222 | 3.2 | 3.2 | 0.00 | 0.03 | 0.03 | 64 | 1030.4 |
| 20260903030805 | 12 | 221 | 3.2 | 4.8 | 0.00 | 0.03 | 0.03 | 64 | 1030.3 |
| 20260903030301 | 12 | 217 | 4.8 | 4.8 | 0.00 | 0.03 | 0.03 | 66 | 1030.6 |
| 20260903025756 | 12 | 230 | 3.2 | 4.8 | 0.00 | 0.03 | 0.03 | 65 | 1030.3 |
| 20260903025252 | 11 | 230 | 3.2 | 4.8 | 0.00 | 0.03 | 0.03 | 69 | 1030.3 |
| 20260903024752 | 12 | 208 | 4.8 | 4.8 | 0.00 | 0.03 | 0.03 | 65 | 1030.3 |
| 20260903024251 | 12 | 236 | 1.6 | 3.2 | 0.00 | 0.03 | 0.03 | 65 | 1030.7 |
| 20260903023747 | 12 | 224 | 3.2 | 4.8 | 0.00 | 0.03 | 0.03 | 69 | 1030.6 |
| 20260903023242 | 12 | 219 | 4.8 | 4.8 | 0.00 | 0.03 | 0.03 | 65 | 1030.7 |
| 20260903022737 | 12 | 227 | 3.2 | 4.8 | 0.00 | 0.03 | 0.03 | 66 | 1030.6 |
| 20260903022236 | 13 | 222 | 3.2 | 4.8 | 0.00 | 0.03 | 0.03 | 71 | 1030.6 |
| 20260903021736 | 13 | 217 | 3.2 | 4.8 | 0.00 | 0.03 | 0.03 | 67 | 1030.4 |
| 20260903021231 | 13 | 238 | 3.2 | 4.8 | 0.00 | 0.03 | 0.03 | 67 | 1030.7 |
| 20260903020725 | 13 | 220 | 3.2 | 4.8 | 0.00 | 0.03 | 0.03 | 67 | 1030.6 |
| 20260903020220 | 14 | 228 | 3.2 | 4.8 | 0.00 | 0.03 | 0.03 | 66 | 1030.8 |
| 20260903015715 | 15 | 230 | 6.4 | 12.9 | 0.00 | 0.03 | 0.03 | 60 | 1030.6 |
| 20260903015210 | 15 | 225 | 4.8 | 6.4 | 0.00 | 0.03 | 0.03 | 54 | 1030.6 |
| 20260903014706 | 15 | 228 | 4.8 | 9.7 | 0.00 | 0.03 | 0.03 | 56 | 1030.6 |
| 20260903014205 | 13 | 232 | 4.8 | 9.7 | 0.00 | 0.03 | 0.03 | 61 | 1030.4 |
| 20260903013700 | 13 | 224 | 3.2 | 4.8 | 0.00 | 0.03 | 0.03 | 64 | 1030.4 |
| 20260903013159 | 13 | 214 | 4.8 | 4.8 | 0.00 | 0.03 | 0.03 | 64 | 1030.3 |
| 20260903012658 | 13 | 236 | 3.2 | 4.8 | 0.00 | 0.03 | 0.03 | 71 | 1030.0 |
| 20260903012153 | 13 | 236 | 1.6 | 3.2 | 0.00 | 0.03 | 0.03 | 70 | 1029.9 |
| 20260903011652 | 12 | 250 | 0.0 | 1.6 | 0.00 | 0.03 | 0.03 | 68 | 1029.9 |
| 20260903011146 | 12 | 222 | 3.2 | 4.8 | 0.00 | 0.03 | 0.03 | 68 | 1030.0 |
| 20260903010642 | 12 | 208 | 4.8 | 4.8 | 0.00 | 0.03 | 0.03 | 71 | 1029.9 |
| 20260903010141 | 12 | 212 | 4.8 | 4.8 | 0.00 | 0.03 | 0.03 | 74 | 1030.2 |
| 20260903005640 | 13 | 224 | 3.2 | 3.2 | 0.00 | 0.03 | 0.03 | 74 | 1030.2 |
| 20260903005136 | 13 | 229 | 3.2 | 4.8 | 0.00 | 0.03 | 0.03 | 74 | 1030.3 |
| 20260903004631 | 13 | 218 | 3.2 | 4.8 | 0.00 | 0.03 | 0.03 | 72 | 1030.2 |
| 20260903004126 | 13 | 234 | 3.2 | 4.8 | 0.00 | 0.03 | 0.03 | 68 | 1030.3 |
| 20260903003621 | 13 | 230 | 3.2 | 3.2 | 0.00 | 0.03 | 0.03 | 74 | 1030.0 |
| 20260903003116 | 13 | 228 | 1.6 | 3.2 | 0.00 | 0.03 | 0.03 | 71 | 1030.0 |
| 20260903002612 | 13 | 268 | 3.2 | 4.8 | 0.00 | 0.03 | 0.03 | 66 | 1030.0 |
| 20260903002106 | 13 | 234 | 1.6 | 6.4 | 0.00 | 0.03 | 0.03 | 67 | 1029.9 |
| 20260903001601 | 12 | 266 | 3.2 | 6.4 | 0.00 | 0.03 | 0.03 | 67 | 1029.9 |
| 20260903001100 | 13 | 236 | 4.8 | 4.8 | 0.00 | 0.03 | 0.03 | 76 | 1030.0 |
| 20260903000556 | 12 | 219 | 3.2 | 4.8 | 0.00 | 0.03 | 0.03 | 80 | 1030.0 |
| 20260903000049 | 12 | 248 | 1.6 | 3.2 | 0.00 | 0.03 | 0.03 | 80 | 1029.9 |
| 20260902235543 | 12 | 254 | 6.4 | 9.7 | 0.18 | 0.03 | 0.03 | 76 | 1029.9 |
| 20260902235038 | 13 | 245 | 3.2 | 4.8 | 0.18 | 0.03 | 0.03 | 79 | 1030.3 |
| 20260902234538 | 16 | 266 | 6.4 | 9.7 | 0.00 | 0.00 | 0.00 | 62 | 1030.3 |
| 20260902234036 | 16 | 271 | 3.2 | 3.2 | 0.00 | 0.00 | 0.00 | 50 | 1030.0 |
| 20260902233531 | 17 | 47 | 3.2 | 9.7 | 0.00 | 0.00 | 0.00 | 47 | 1029.9 |
| 20260902233026 | 17 | 299 | 6.4 | 16.1 | 0.00 | 0.00 | 0.00 | 46 | 1030.0 |
| 20260902232525 | 18 | 294 | 1.6 | 4.8 | 0.00 | 0.00 | 0.00 | 44 | 1029.9 |
| 20260902232014 | 18 | 267 | 1.6 | 3.2 | 0.00 | 0.00 | 0.00 | 43 | 1030.0 |
| 20260902231509 | 19 | 322 | 1.6 | 3.2 | 0.00 | 0.00 | 0.00 | 41 | 1030.0 |
| 20260902231003 | 20 | 258 | 1.6 | 1.6 | 0.00 | 0.00 | 0.00 | 39 | 1030.3 |
| 20260902230503 | 20 | 221 | 1.6 | 3.2 | 0.00 | 0.00 | 0.00 | 39 | 1030.2 |
| 20260902225956 | 18 | 251 | 1.6 | 1.6 | 0.00 | 0.00 | 0.00 | 41 | 1030.3 |
| 20260902225451 | 18 | 262 | 0.0 | 0.0 | 0.00 | 0.00 | 0.00 | 41 | 1030.6 |
| 20260902224951 | 18 | 268 | 0.0 | 3.2 | 0.00 | 0.00 | 0.00 | 41 | 1030.6 |
| 20260902224445 | 18 | 263 | 3.2 | 6.4 | 0.00 | 0.00 | 0.00 | 43 | 1030.4 |
| 20260902223942 | 18 | 18 | 1.6 | 4.8 | 0.00 | 0.00 | 0.00 | 43 | 1030.4 |
| 20260902223437 | 18 | 295 | 3.2 | 6.4 | 0.00 | 0.00 | 0.00 | 44 | 1030.6 |
| 20260902222936 | 18 | 348 | 4.8 | 4.8 | 0.00 | 0.00 | 0.00 | 42 | 1030.4 |
| 20260902222434 | 18 | 287 | 0.0 | 3.2 | 0.00 | 0.00 | 0.00 | 42 | 1030.3 |
| 20260902221929 | 18 | 268 | 0.0 | 1.6 | 0.00 | 0.00 | 0.00 | 43 | 1030.3 |
| 20260902221427 | 18 | 253 | 0.0 | 0.0 | 0.00 | 0.00 | 0.00 | 44 | 1030.3 |
| 20260902220923 | 18 | 242 | 3.2 | 6.4 | 0.00 | 0.00 | 0.00 | 42 | 1030.2 |
| 20260902220417 | 18 | 261 | 0.0 | 3.2 | 0.00 | 0.00 | 0.00 | 42 | 1030.2 |
| 20260902215912 | 18 | 264 | 0.0 | 4.8 | 0.00 | 0.00 | 0.00 | 43 | 1030.2 |
| 20260902215408 | 18 | 247 | 0.0 | 1.6 | 0.00 | 0.00 | 0.00 | 44 | 1030.0 |
| 20260902214904 | 18 | 359 | 4.8 | 4.8 | 0.00 | 0.00 | 0.00 | 46 | 1030.0 |
| 20260902214402 | 18 | 29 | 4.8 | 6.4 | 0.00 | 0.00 | 0.00 | 43 | 1030.3 |
| 20260902213857 | 19 | 254 | 3.2 | 6.4 | 0.00 | 0.00 | 0.00 | 42 | 1030.6 |
| 20260902213354 | 18 | 238 | 3.2 | 4.8 | 0.00 | 0.00 | 0.00 | 43 | 1030.3 |
| 20260902212852 | 18 | 190 | 6.4 | 6.4 | 0.00 | 0.00 | 0.00 | 43 | 1030.3 |
| 20260902212349 | 18 | 286 | 1.6 | 4.8 | 0.00 | 0.00 | 0.00 | 41 | 1030.2 |
| 20260902211845 | 18 | 261 | 0.0 | 6.4 | 0.00 | 0.00 | 0.00 | 42 | 1030.3 |
| 20260902211340 | 18 | 272 | 0.0 | 1.6 | 0.00 | 0.00 | 0.00 | 43 | 1030.6 |
| 20260902210835 | 18 | 256 | 0.0 | 0.0 | 0.00 | 0.00 | 0.00 | 45 | 1030.4 |
| 20260902210334 | 18 | 245 | 0.0 | 1.6 | 0.00 | 0.00 | 0.00 | 44 | 1030.6 |
| 20260902205833 | 18 | 238 | 0.0 | 0.0 | 0.00 | 0.00 | 0.00 | 46 | 1030.6 |
| 20260902205327 | 18 | 251 | 0.0 | 4.8 | 0.00 | 0.00 | 0.00 | 47 | 1030.6 |
| 20260902204823 | 18 | 67 | 6.4 | 12.9 | 0.00 | 0.00 | 0.00 | 43 | 1030.6 |
| 20260902204318 | 18 | 234 | 0.0 | 6.4 | 0.00 | 0.00 | 0.00 | 52 | 1031.0 |
| 20260902203814 | 18 | 87 | 3.2 | 4.8 | 0.00 | 0.00 | 0.00 | 40 | 1031.0 |
| 20260902203309 | 18 | 260 | 3.2 | 6.4 | 0.00 | 0.00 | 0.00 | 41 | 1031.0 |
| 20260902202808 | 18 | 232 | 3.2 | 4.8 | 0.00 | 0.00 | 0.00 | 40 | 1031.2 |